Showing default

OV2-3, 13912

Orbit data source: Space-Track

OV2-3, 13912 is a payload satellite owned by USAF SSD (US) in HEO that was launched on Tue, 21 Dec 1965 UTC via a TITAN IIIC launch vehicle from the Air Force Eastern Test Range (AFETR). Payload-class satellites include a variety of spacecraft equipped with specific instruments for various scientific and technological missions. These include communications satellites like Starlink; space stations such as the ISS; scientific satellites like the Hubble; Earth observation satellites from companies like Planet Labs, Umbra, and HawkEye 360; GPS; miniature CubeSats for education and research; and military/defense satellites.

Loading next visibility...
Identifier
13912, 1965-108V
Orbit
HEO
Country
Flag of USUS
Related business
Manufacturer
Northrop
Mission
Spacecraft
Bus & Motor
OV2, Unknown motor
Mass
2,144 kg wet, 194 kg dry
Launch date (UTC)
1965-12-21 (60 years ago)
Launch vehicle
TITAN IIIC
Launch site
Air Force Eastern Test Range (AFETR)
Object type
Payload
Rocket body
Debris
Shape & HBR
Unknown shape, 1.1 m
Radar Cross Section
Large (>1 m²)

Expand to show TLE details & history
Last TLE update: 1 day ago

TLE from 1 day ago
0 OV2-3
1 13912U 65108V   25342.04399958  .00019884  00000-0  14628-2 0  9992
2 13912  26.5879 276.2170 5259581 186.3760 162.7458  5.24946903560596
Epoch: 2025-12-08T01:03Z
TLE epoch observation values (Epoch: 2025-12-08T01:03:21.563Z)
Latitude
0.00004°
Longitude
-176.66995°
Altitude
14,819.506 km
Speed
3.018 km/s
True Right ascension
18h 24m 52s
True Declination
0° 00' 00"
Sunlit
Object was in daylight at epoch
Visualization orbit readout
Latitude
Unknown
Longitude
Unknown
Altitude
Unknown
Speed
Unknown
Apparent Right ascension
Unknown
Apparent Declination
Unknown
Sunlit
N/A
Visualization observer readout
Local Sidereal Time
05:55:53
Azimuth
Unknown
Elevation
Unknown
Doppler factor
Unknown
Orbital elements
Apogee altitude
14,967.658 km
Perigee altitude
252.976 km
Semi-major axis
13,988.454 km
Eccentricity
0.52596
Inclination
26.5879°
RAAN
276.217°
Arg. of periapsis
186.376°
True anomaly
173.66945°
Mean anomaly
162.7458°
Eccentric anomaly
168.66746°
Mean motion
1.31186 °/min
Orbital period
274.42 mins
BSTAR
0.0014628
Loading maneuver chart data...
Computing Atmospheric mass density...

Documentation

Showing up to 5 results
|